Time,TemperatureF,DewpointF,PressureIn,WindDirection,WindDirectionDegrees,WindSpeedMPH,WindSpeedGustMPH,Humidity,HourlyPrecipIn,Conditions,Clouds,dailyrainin,SoftwareType,DateUTC
2013-10-04 00:02:00,30.0,27.0,29.77,East,88,15.0,20.0,88,0.00,,,0.00,meteohub,2013-10-04 07:02:00,
2013-10-04 00:07:00,29.8,27.0,29.77,ESE,105,11.0,19.0,89,0.00,,,0.00,meteohub,2013-10-04 07:07:00,
2013-10-04 00:12:00,29.5,27.0,29.78,ENE,78,15.0,19.0,90,0.00,,,0.00,meteohub,2013-10-04 07:12:00,
2013-10-04 00:17:00,29.5,26.6,29.78,ENE,74,12.0,19.0,89,0.00,,,0.00,meteohub,2013-10-04 07:17:00,
2013-10-04 00:22:00,29.8,26.4,29.78,ESE,105,11.0,17.0,87,0.00,,,0.00,meteohub,2013-10-04 07:22:00,
2013-10-04 00:27:00,30.4,26.1,29.78,ESE,119,8.0,17.0,84,0.00,,,0.00,meteohub,2013-10-04 07:27:00,
2013-10-04 00:32:00,30.7,25.9,29.78,ESE,107,9.0,17.0,82,0.00,,,0.00,meteohub,2013-10-04 07:32:00,
2013-10-04 00:37:00,30.9,25.5,29.79,ESE,103,13.0,18.0,80,0.00,,,0.00,meteohub,2013-10-04 07:37:00,
2013-10-04 00:42:00,31.1,25.7,29.79,East,81,9.0,18.0,80,0.00,,,0.00,meteohub,2013-10-04 07:42:00,
2013-10-04 00:47:00,30.9,25.5,29.80,East,93,10.0,18.0,80,0.00,,,0.00,meteohub,2013-10-04 07:47:00,
2013-10-04 00:52:00,30.9,25.5,29.80,East,90,7.0,16.0,80,0.00,,,0.00,meteohub,2013-10-04 07:52:00,
2013-10-04 00:57:00,30.7,25.9,29.81,ENE,70,5.0,17.0,82,0.00,,,0.00,meteohub,2013-10-04 07:57:00,
2013-10-04 01:02:00,30.6,25.3,29.81,ENE,74,8.0,17.0,81,0.00,,,0.00,meteohub,2013-10-04 08:02:00,
2013-10-04 01:07:00,30.4,25.3,29.81,East,90,11.0,16.0,81,0.00,,,0.00,meteohub,2013-10-04 08:07:00,
2013-10-04 01:12:00,30.4,24.6,29.81,ENE,64,8.0,17.0,79,0.00,,,0.00,meteohub,2013-10-04 08:12:00,
2013-10-04 01:17:00,30.4,24.6,29.81,East,79,8.0,19.0,79,0.00,,,0.00,meteohub,2013-10-04 08:17:00,
2013-10-04 01:22:00,30.4,25.0,29.82,ENE,71,9.0,19.0,80,0.00,,,0.00,meteohub,2013-10-04 08:22:00,
2013-10-04 01:27:00,30.2,24.8,29.81,East,94,13.0,18.0,80,0.00,,,0.00,meteohub,2013-10-04 08:27:00,
2013-10-04 01:32:00,30.2,24.4,29.81,East,89,13.0,17.0,79,0.00,,,0.00,meteohub,2013-10-04 08:32:00,
2013-10-04 01:37:00,30.2,24.4,29.81,East,90,10.0,17.0,79,0.00,,,0.00,meteohub,2013-10-04 08:37:00,
2013-10-04 01:42:00,30.2,24.3,29.81,East,86,7.0,17.0,78,0.00,,,0.00,meteohub,2013-10-04 08:42:00,
2013-10-04 01:47:00,30.2,24.4,29.82,East,80,10.0,16.0,79,0.00,,,0.00,meteohub,2013-10-04 08:47:00,
2013-10-04 01:52:00,30.0,24.6,29.82,East,90,9.0,15.0,80,0.00,,,0.00,meteohub,2013-10-04 08:52:00,
2013-10-04 01:57:00,29.8,24.4,29.82,East,88,8.0,15.0,80,0.00,,,0.00,meteohub,2013-10-04 08:57:00,
2013-10-04 02:02:00,29.8,24.4,29.82,ESE,115,2.0,14.0,80,0.00,,,0.00,meteohub,2013-10-04 09:02:00,
2013-10-04 02:07:00,29.8,24.1,29.82,East,96,7.0,14.0,79,0.00,,,0.00,meteohub,2013-10-04 09:07:00,
2013-10-04 02:12:00,30.0,24.1,29.82,East,80,7.0,11.0,78,0.00,,,0.00,meteohub,2013-10-04 09:12:00,
2013-10-04 02:17:00,29.8,23.9,29.82,ESE,103,3.0,11.0,78,0.00,,,0.00,meteohub,2013-10-04 09:17:00,
2013-10-04 02:22:00,29.8,24.1,29.81,ESE,105,4.0,11.0,79,0.00,,,0.00,meteohub,2013-10-04 09:22:00,
2013-10-04 02:27:00,29.7,24.3,29.81,ESE,115,0.0,10.0,80,0.00,,,0.00,meteohub,2013-10-04 09:27:00,
2013-10-04 02:32:00,29.7,24.3,29.80,SE,128,1.0,10.0,80,0.00,,,0.00,meteohub,2013-10-04 09:32:00,
2013-10-04 02:37:00,29.7,24.3,29.79,SE,128,0.0,10.0,80,0.00,,,0.00,meteohub,2013-10-04 09:37:00,
2013-10-04 02:42:00,29.5,24.1,29.78,SSW,200,3.0,5.0,80,0.00,,,0.00,meteohub,2013-10-04 09:42:00,
2013-10-04 02:47:00,29.1,24.1,29.79,SSW,200,1.0,4.0,81,0.00,,,0.00,meteohub,2013-10-04 09:47:00,
2013-10-04 02:52:00,29.1,24.1,29.79,SSW,200,1.0,4.0,81,0.00,,,0.00,meteohub,2013-10-04 09:52:00,
2013-10-04 02:57:00,28.9,24.1,29.80,ENE,59,4.0,4.0,82,0.00,,,0.00,meteohub,2013-10-04 09:57:00,
2013-10-04 03:02:00,28.8,23.9,29.79,ENE,59,0.0,4.0,82,0.00,,,0.00,meteohub,2013-10-04 10:02:00,
2013-10-04 03:12:00,28.4,24.3,29.81,ENE,58,0.0,4.0,84,0.00,,,0.00,meteohub,2013-10-04 10:12:00,
2013-10-04 03:17:00,28.2,24.3,29.81,ENE,58,0.0,3.0,85,0.00,,,0.00,meteohub,2013-10-04 10:17:00,
2013-10-04 03:22:00,28.2,24.6,29.81,ENE,59,0.0,3.0,86,0.00,,,0.00,meteohub,2013-10-04 10:22:00,
2013-10-04 03:27:00,28.2,24.6,29.81,ENE,59,1.0,1.0,86,0.00,,,0.00,meteohub,2013-10-04 10:27:00,
2013-10-04 03:32:00,28.2,24.6,29.81,ENE,76,1.0,3.0,86,0.00,,,0.00,meteohub,2013-10-04 10:32:00,
2013-10-04 03:37:00,28.2,24.6,29.81,East,90,0.0,3.0,86,0.00,,,0.00,meteohub,2013-10-04 10:37:00,
2013-10-04 03:42:00,28.2,24.8,29.82,ENE,67,4.0,5.0,87,0.00,,,0.00,meteohub,2013-10-04 10:42:00,
2013-10-04 03:47:00,28.2,24.8,29.82,ENE,67,1.0,6.0,87,0.00,,,0.00,meteohub,2013-10-04 10:47:00,
2013-10-04 03:52:00,28.4,25.0,29.82,East,80,3.0,6.0,87,0.00,,,0.00,meteohub,2013-10-04 10:52:00,
2013-10-04 03:57:00,28.6,25.0,29.82,ESE,114,1.0,6.0,86,0.00,,,0.00,meteohub,2013-10-04 10:57:00,
2013-10-04 04:02:00,28.8,24.8,29.82,ESE,105,3.0,6.0,85,0.00,,,0.00,meteohub,2013-10-04 11:02:00,
2013-10-04 04:07:00,28.8,24.8,29.83,ESE,105,2.0,6.0,85,0.00,,,0.00,meteohub,2013-10-04 11:07:00,
2013-10-04 04:12:00,28.8,24.8,29.83,ESE,105,2.0,4.0,85,0.00,,,0.00,meteohub,2013-10-04 11:12:00,
2013-10-04 04:17:00,28.9,24.8,29.83,East,83,0.0,3.0,84,0.00,,,0.00,meteohub,2013-10-04 11:17:00,
2013-10-04 04:22:00,28.9,24.8,29.83,East,84,2.0,5.0,84,0.00,,,0.00,meteohub,2013-10-04 11:22:00,
2013-10-04 04:27:00,28.9,24.8,29.83,ESE,118,1.0,5.0,84,0.00,,,0.00,meteohub,2013-10-04 11:27:00,
2013-10-04 04:32:00,28.9,24.4,29.83,ESE,118,0.0,5.0,83,0.00,,,0.00,meteohub,2013-10-04 11:32:00,
2013-10-04 04:37:00,28.9,24.4,29.83,ENE,62,3.0,4.0,83,0.00,,,0.00,meteohub,2013-10-04 11:37:00,
2013-10-04 04:42:00,28.9,24.1,29.83,ENE,76,2.0,5.0,82,0.00,,,0.00,meteohub,2013-10-04 11:42:00,
2013-10-04 04:47:00,28.9,23.9,29.83,ENE,76,2.0,5.0,81,0.00,,,0.00,meteohub,2013-10-04 11:47:00,
2013-10-04 04:52:00,28.9,24.1,29.83,ENE,76,0.0,5.0,82,0.00,,,0.00,meteohub,2013-10-04 11:52:00,
2013-10-04 04:57:00,28.9,24.1,29.84,ENE,76,1.0,4.0,82,0.00,,,0.00,meteohub,2013-10-04 11:57:00,
2013-10-04 05:02:00,28.9,24.1,29.84,ENE,76,0.0,3.0,82,0.00,,,0.00,meteohub,2013-10-04 12:02:00,
2013-10-04 05:07:00,28.8,24.6,29.84,ENE,67,3.0,3.0,84,0.00,,,0.00,meteohub,2013-10-04 12:07:00,
2013-10-04 05:12:00,28.6,24.1,29.84,ENE,75,3.0,4.0,83,0.00,,,0.00,meteohub,2013-10-04 12:12:00,
2013-10-04 05:17:00,28.2,23.4,29.85,East,79,3.0,8.0,82,0.00,,,0.00,meteohub,2013-10-04 12:17:00,
2013-10-04 05:22:00,28.0,23.2,29.85,ENE,69,3.0,9.0,82,0.00,,,0.00,meteohub,2013-10-04 12:22:00,
2013-10-04 05:27:00,27.9,23.0,29.85,North,9,2.0,9.0,82,0.00,,,0.00,meteohub,2013-10-04 12:27:00,
2013-10-04 05:32:00,27.7,22.8,29.86,ENE,73,4.0,9.0,82,0.00,,,0.00,meteohub,2013-10-04 12:32:00,
2013-10-04 05:37:00,27.5,22.1,29.86,NE,53,5.0,8.0,80,0.00,,,0.00,meteohub,2013-10-04 12:37:00,
2013-10-04 05:42:00,27.3,21.7,29.86,ENE,62,2.0,14.0,79,0.00,,,0.00,meteohub,2013-10-04 12:42:00,
2013-10-04 05:47:00,27.0,21.6,29.86,ESE,123,2.0,14.0,80,0.00,,,0.00,meteohub,2013-10-04 12:47:00,
2013-10-04 05:52:00,26.4,21.0,29.86,ENE,61,2.0,7.0,80,0.00,,,0.00,meteohub,2013-10-04 12:52:00,
2013-10-04 05:57:00,26.2,20.8,29.86,ENE,61,2.0,8.0,80,0.00,,,0.00,meteohub,2013-10-04 12:57:00,
2013-10-04 06:02:00,26.1,21.0,29.86,East,87,3.0,8.0,81,0.00,,,0.00,meteohub,2013-10-04 13:02:00,
2013-10-04 06:07:00,26.1,20.7,29.86,East,80,6.0,8.0,80,0.00,,,0.00,meteohub,2013-10-04 13:07:00,
2013-10-04 06:12:00,26.1,20.7,29.86,ESE,109,3.0,8.0,80,0.00,,,0.00,meteohub,2013-10-04 13:12:00,
2013-10-04 06:17:00,26.2,20.3,29.86,ESE,109,5.0,8.0,78,0.00,,,0.00,meteohub,2013-10-04 13:17:00,
2013-10-04 06:22:00,26.4,19.9,29.87,ESE,102,3.0,8.0,76,0.00,,,0.00,meteohub,2013-10-04 13:22:00,
2013-10-04 06:27:00,26.8,19.6,29.88,East,86,6.0,8.0,74,0.00,,,0.00,meteohub,2013-10-04 13:27:00,
2013-10-04 06:32:00,27.0,19.4,29.88,ESE,117,5.0,8.0,73,0.00,,,0.00,meteohub,2013-10-04 13:32:00,
2013-10-04 06:42:00,27.0,18.9,29.88,SSE,152,9.0,12.0,71,0.00,,,0.00,meteohub,2013-10-04 13:42:00,
2013-10-04 06:47:00,27.0,18.5,29.88,SE,130,1.0,14.0,70,0.00,,,0.00,meteohub,2013-10-04 13:47:00,
2013-10-04 06:52:00,27.0,18.1,29.89,ESE,106,8.0,14.0,69,0.00,,,0.00,meteohub,2013-10-04 13:52:00,
2013-10-04 06:57:00,27.0,17.8,29.89,ESE,112,7.0,13.0,68,0.00,,,0.00,meteohub,2013-10-04 13:57:00,
2013-10-04 07:02:00,27.3,17.1,29.89,ENE,78,3.0,13.0,65,0.00,,,0.00,meteohub,2013-10-04 14:02:00,
2013-10-04 07:07:00,27.7,17.1,29.90,ENE,74,4.0,13.0,64,0.00,,,0.00,meteohub,2013-10-04 14:07:00,
2013-10-04 07:12:00,27.9,17.2,29.90,SE,128,3.0,11.0,64,0.00,,,0.00,meteohub,2013-10-04 14:12:00,
2013-10-04 07:17:00,28.2,17.2,29.90,ESE,113,7.0,11.0,63,0.00,,,0.00,meteohub,2013-10-04 14:17:00,
2013-10-04 07:22:00,28.4,17.1,29.90,East,91,1.0,11.0,62,0.00,,,0.00,meteohub,2013-10-04 14:22:00,
2013-10-04 07:27:00,28.6,17.2,29.90,East,98,5.0,11.0,62,0.00,,,0.00,meteohub,2013-10-04 14:27:00,
2013-10-04 07:32:00,28.6,17.6,29.90,SE,134,4.0,11.0,63,0.00,,,0.00,meteohub,2013-10-04 14:32:00,
2013-10-04 07:37:00,28.8,16.7,29.91,ESE,119,9.0,10.0,60,0.00,,,0.00,meteohub,2013-10-04 14:37:00,
2013-10-04 07:42:00,28.8,16.2,29.91,East,98,3.0,10.0,59,0.00,,,0.00,meteohub,2013-10-04 14:42:00,
2013-10-04 07:47:00,28.9,16.9,29.91,SE,136,6.0,10.0,60,0.00,,,0.00,meteohub,2013-10-04 14:47:00,
2013-10-04 07:52:00,29.3,16.7,29.91,ENE,71,8.0,10.0,59,0.00,,,0.00,meteohub,2013-10-04 14:52:00,
2013-10-04 07:57:00,29.5,16.5,29.91,East,94,11.0,12.0,58,0.00,,,0.00,meteohub,2013-10-04 14:57:00,
2013-10-04 08:02:00,29.7,16.7,29.91,East,94,8.0,13.0,58,0.00,,,0.00,meteohub,2013-10-04 15:02:00,
2013-10-04 08:07:00,29.8,16.0,29.91,East,90,10.0,14.0,56,0.00,,,0.00,meteohub,2013-10-04 15:07:00,
2013-10-04 08:12:00,29.8,16.9,29.91,ESE,113,4.0,15.0,58,0.01,,,0.01,meteohub,2013-10-04 15:12:00,
2013-10-04 08:17:00,30.0,16.7,29.91,ESE,117,3.0,15.0,57,0.01,,,0.01,meteohub,2013-10-04 15:17:00,
2013-10-04 08:22:00,30.4,16.2,29.92,ESE,111,8.0,15.0,55,0.01,,,0.01,meteohub,2013-10-04 15:22:00,
2013-10-04 08:27:00,30.4,16.2,29.91,ESE,115,7.0,14.0,55,0.01,,,0.01,meteohub,2013-10-04 15:27:00,
2013-10-04 08:32:00,30.6,16.7,29.91,ESE,117,9.0,15.0,56,0.01,,,0.01,meteohub,2013-10-04 15:32:00,
2013-10-04 08:37:00,30.7,16.9,29.92,East,82,14.0,15.0,56,0.01,,,0.01,meteohub,2013-10-04 15:37:00,
2013-10-04 08:42:00,30.9,18.0,29.92,East,83,8.0,15.0,58,0.01,,,0.01,meteohub,2013-10-04 15:42:00,
2013-10-04 08:47:00,30.9,17.1,29.92,ESE,106,4.0,15.0,56,0.01,,,0.01,meteohub,2013-10-04 15:47:00,
2013-10-04 08:52:00,30.9,18.0,29.92,East,88,16.0,16.0,58,0.01,,,0.01,meteohub,2013-10-04 15:52:00,
2013-10-04 08:57:00,31.3,19.0,29.93,ESE,119,5.0,16.0,60,0.01,,,0.01,meteohub,2013-10-04 15:57:00,
2013-10-04 09:02:00,31.3,19.0,29.93,ESE,107,5.0,16.0,60,0.01,,,0.01,meteohub,2013-10-04 16:02:00,
2013-10-04 09:07:00,31.5,18.9,29.92,ESE,111,9.0,16.0,59,0.01,,,0.02,meteohub,2013-10-04 16:07:00,
2013-10-04 09:12:00,31.5,18.0,29.93,East,80,9.0,16.0,57,0.01,,,0.02,meteohub,2013-10-04 16:12:00,
2013-10-04 09:17:00,31.6,19.0,29.93,ESE,107,7.0,16.0,59,0.01,,,0.02,meteohub,2013-10-04 16:17:00,
2013-10-04 09:22:00,31.8,18.7,29.93,ESE,107,5.0,15.0,58,0.01,,,0.02,meteohub,2013-10-04 16:22:00,
2013-10-04 09:27:00,32.0,18.9,29.93,ENE,69,9.0,15.0,58,0.01,,,0.02,meteohub,2013-10-04 16:27:00,
2013-10-04 09:32:00,32.2,19.9,29.93,East,96,8.0,15.0,60,0.01,,,0.02,meteohub,2013-10-04 16:32:00,
2013-10-04 09:37:00,32.2,19.0,29.93,East,88,7.0,16.0,58,0.01,,,0.02,meteohub,2013-10-04 16:37:00,
2013-10-04 09:42:00,32.4,19.2,29.93,East,98,8.0,16.0,58,0.01,,,0.02,meteohub,2013-10-04 16:42:00,
2013-10-04 09:47:00,32.5,19.0,29.93,ESE,121,7.0,16.0,57,0.01,,,0.02,meteohub,2013-10-04 16:47:00,
2013-10-04 09:52:00,32.5,19.8,29.94,ENE,78,11.0,18.0,59,0.01,,,0.02,meteohub,2013-10-04 16:52:00,
2013-10-04 09:57:00,32.4,19.9,29.94,East,96,11.0,18.0,60,0.02,,,0.03,meteohub,2013-10-04 16:57:00,
2013-10-04 10:02:00,32.4,20.5,29.94,East,86,13.0,18.0,61,0.02,,,0.03,meteohub,2013-10-04 17:02:00,
2013-10-04 10:07:00,32.5,21.0,29.94,ESE,117,15.0,15.0,62,0.01,,,0.03,meteohub,2013-10-04 17:07:00,
2013-10-04 10:12:00,32.7,21.2,29.94,East,93,16.0,16.0,62,0.01,,,0.03,meteohub,2013-10-04 17:12:00,
2013-10-04 10:17:00,32.9,20.5,29.95,East,84,11.0,18.0,60,0.01,,,0.03,meteohub,2013-10-04 17:17:00,
2013-10-04 10:22:00,32.9,19.8,29.95,East,94,10.0,18.0,58,0.01,,,0.03,meteohub,2013-10-04 17:22:00,
2013-10-04 10:27:00,32.9,20.8,29.95,SE,132,6.0,18.0,61,0.01,,,0.03,meteohub,2013-10-04 17:27:00,
2013-10-04 10:32:00,33.3,20.5,29.96,East,88,16.0,17.0,59,0.01,,,0.03,meteohub,2013-10-04 17:32:00,
2013-10-04 10:37:00,33.3,20.1,29.96,ESE,107,11.0,19.0,58,0.01,,,0.03,meteohub,2013-10-04 17:37:00,
2013-10-04 11:07:00,33.4,19.0,29.97,ESE,107,10.0,22.0,55,0.00,,,0.03,meteohub,2013-10-04 18:07:00,
2013-10-04 11:12:00,33.4,19.0,29.97,SE,132,7.0,22.0,55,0.00,,,0.03,meteohub,2013-10-04 18:12:00,
2013-10-04 11:17:00,33.8,18.9,29.98,ESE,113,7.0,21.0,54,0.00,,,0.03,meteohub,2013-10-04 18:17:00,
2013-10-04 11:22:00,33.8,18.0,29.98,East,87,7.0,21.0,52,0.00,,,0.03,meteohub,2013-10-04 18:22:00,
2013-10-04 11:27:00,34.5,19.6,29.99,East,82,10.0,21.0,54,0.00,,,0.03,meteohub,2013-10-04 18:27:00,
2013-10-04 11:32:00,35.2,19.4,29.99,East,90,13.0,19.0,52,0.00,,,0.03,meteohub,2013-10-04 18:32:00,
2013-10-04 11:37:00,35.2,19.4,29.99,East,83,17.0,19.0,52,0.00,,,0.03,meteohub,2013-10-04 18:37:00,
2013-10-04 11:42:00,35.4,20.5,29.99,East,85,8.0,20.0,54,0.00,,,0.03,meteohub,2013-10-04 18:42:00,
2013-10-04 11:47:00,36.1,21.6,29.99,ENE,66,11.0,20.0,55,0.00,,,0.03,meteohub,2013-10-04 18:47:00,
2013-10-04 11:52:00,36.3,21.2,29.99,ENE,61,12.0,20.0,54,0.00,,,0.03,meteohub,2013-10-04 18:52:00,
2013-10-04 11:57:00,36.3,20.3,29.99,ENE,77,14.0,21.0,52,0.00,,,0.03,meteohub,2013-10-04 18:57:00,
2013-10-04 12:02:00,36.7,21.2,30.00,NE,56,13.0,23.0,53,0.00,,,0.03,meteohub,2013-10-04 19:02:00,
2013-10-04 12:07:00,36.5,20.1,30.00,NE,56,15.0,23.0,51,0.00,,,0.03,meteohub,2013-10-04 19:07:00,
2013-10-04 12:12:00,36.1,18.9,30.00,ENE,67,13.0,23.0,49,0.00,,,0.03,meteohub,2013-10-04 19:12:00,
2013-10-04 12:17:00,35.1,18.7,30.00,ENE,59,23.0,24.0,51,0.00,,,0.03,meteohub,2013-10-04 19:17:00,
2013-10-04 12:22:00,35.4,19.6,30.00,East,82,11.0,26.0,52,0.00,,,0.03,meteohub,2013-10-04 19:22:00,
2013-10-04 12:27:00,36.1,19.2,30.00,ENE,75,16.0,26.0,50,0.00,,,0.03,meteohub,2013-10-04 19:27:00,
2013-10-04 12:32:00,36.3,18.5,30.01,ENE,68,18.0,26.0,48,0.00,,,0.03,meteohub,2013-10-04 19:32:00,
2013-10-04 12:37:00,36.3,19.0,30.01,NE,56,12.0,24.0,49,0.00,,,0.03,meteohub,2013-10-04 19:37:00,
2013-10-04 12:42:00,36.3,17.6,30.01,ENE,69,13.0,24.0,46,0.00,,,0.03,meteohub,2013-10-04 19:42:00,
2013-10-04 12:47:00,36.3,18.5,30.02,ENE,61,22.0,28.0,48,0.00,,,0.03,meteohub,2013-10-04 19:47:00,
2013-10-04 12:52:00,36.9,17.1,30.02,ENE,78,23.0,28.0,44,0.00,,,0.03,meteohub,2013-10-04 19:52:00,
2013-10-04 13:02:00,35.8,16.0,30.02,NE,48,20.0,25.0,44,0.00,,,0.03,meteohub,2013-10-04 20:02:00,
2013-10-04 13:07:00,36.1,15.8,30.03,ENE,69,18.0,25.0,43,0.00,,,0.03,meteohub,2013-10-04 20:07:00,
2013-10-04 13:12:00,36.0,17.2,30.03,ENE,78,14.0,25.0,46,0.00,,,0.03,meteohub,2013-10-04 20:12:00,
2013-10-04 13:17:00,35.6,16.3,30.04,NE,40,14.0,25.0,45,0.00,,,0.03,meteohub,2013-10-04 20:17:00,
2013-10-04 13:22:00,35.8,16.0,30.04,NE,44,15.0,24.0,44,0.00,,,0.03,meteohub,2013-10-04 20:22:00,
2013-10-04 13:27:00,36.1,14.2,30.04,ENE,63,16.0,24.0,40,0.00,,,0.03,meteohub,2013-10-04 20:27:00,
2013-10-04 13:32:00,36.0,16.7,30.04,ENE,69,16.0,25.0,45,0.00,,,0.03,meteohub,2013-10-04 20:32:00,
2013-10-04 13:37:00,36.5,16.2,30.04,ENE,76,14.0,25.0,43,0.00,,,0.03,meteohub,2013-10-04 20:37:00,
2013-10-04 13:42:00,36.7,15.3,30.04,ENE,65,10.0,23.0,41,0.00,,,0.03,meteohub,2013-10-04 20:42:00,
2013-10-04 13:47:00,36.5,13.8,30.04,NE,39,16.0,23.0,39,0.00,,,0.03,meteohub,2013-10-04 20:47:00,
2013-10-04 13:52:00,36.9,16.0,30.05,NE,51,12.0,23.0,42,0.00,,,0.03,meteohub,2013-10-04 20:52:00,
2013-10-04 13:57:00,37.4,16.9,30.05,ENE,61,11.0,24.0,43,0.00,,,0.03,meteohub,2013-10-04 20:57:00,
2013-10-04 14:02:00,37.8,15.6,30.05,NE,36,13.0,24.0,40,0.00,,,0.03,meteohub,2013-10-04 21:02:00,
2013-10-04 14:07:00,37.2,14.0,30.06,NE,40,10.0,24.0,38,0.00,,,0.03,meteohub,2013-10-04 21:07:00,
2013-10-04 14:17:00,37.8,15.6,30.06,NNE,26,10.0,20.0,40,0.00,,,0.03,meteohub,2013-10-04 21:17:00,
2013-10-04 14:22:00,37.8,15.1,30.07,ENE,61,11.0,18.0,39,0.00,,,0.03,meteohub,2013-10-04 21:22:00,
2013-10-04 14:27:00,37.0,14.4,30.07,NE,44,10.0,21.0,39,0.00,,,0.03,meteohub,2013-10-04 21:27:00,
2013-10-04 14:32:00,37.0,14.4,30.07,NE,38,15.0,21.0,39,0.00,,,0.03,meteohub,2013-10-04 21:32:00,
2013-10-04 14:37:00,37.0,16.2,30.08,NNE,22,8.0,17.0,42,0.00,,,0.03,meteohub,2013-10-04 21:37:00,
2013-10-04 14:42:00,37.6,17.6,30.08,ENE,77,11.0,17.0,44,0.00,,,0.03,meteohub,2013-10-04 21:42:00,
2013-10-04 14:52:00,37.0,16.2,30.08,NE,43,16.0,16.0,42,0.00,,,0.03,meteohub,2013-10-04 21:52:00,
2013-10-04 14:57:00,36.0,16.2,30.08,NE,53,6.0,17.0,44,0.00,,,0.03,meteohub,2013-10-04 21:57:00,
2013-10-04 15:02:00,35.8,16.5,30.08,NE,41,8.0,17.0,45,0.00,,,0.03,meteohub,2013-10-04 22:02:00,
2013-10-04 15:07:00,36.0,16.2,30.09,NE,36,10.0,17.0,44,0.00,,,0.03,meteohub,2013-10-04 22:07:00,
2013-10-04 15:12:00,36.3,16.5,30.09,North,351,5.0,14.0,44,0.00,,,0.03,meteohub,2013-10-04 22:12:00,
2013-10-04 15:17:00,37.0,17.1,30.09,NE,40,16.0,21.0,44,0.00,,,0.03,meteohub,2013-10-04 22:17:00,
2013-10-04 15:22:00,37.2,16.2,30.09,ENE,61,8.0,21.0,42,0.00,,,0.03,meteohub,2013-10-04 22:22:00,
2013-10-04 15:27:00,36.9,15.4,30.10,NE,48,10.0,21.0,41,0.00,,,0.03,meteohub,2013-10-04 22:27:00,
2013-10-04 15:32:00,36.9,15.4,30.10,NNE,26,6.0,18.0,41,0.00,,,0.03,meteohub,2013-10-04 22:32:00,
2013-10-04 15:37:00,37.0,16.7,30.10,NNE,26,6.0,17.0,43,0.00,,,0.03,meteohub,2013-10-04 22:37:00,
2013-10-04 15:42:00,36.9,14.2,30.10,ENE,73,11.0,17.0,39,0.00,,,0.03,meteohub,2013-10-04 22:42:00,
2013-10-04 15:47:00,37.0,14.9,30.11,NE,39,10.0,14.0,40,0.00,,,0.03,meteohub,2013-10-04 22:47:00,
2013-10-04 15:52:00,36.9,13.6,30.11,NNE,29,12.0,17.0,38,0.00,,,0.03,meteohub,2013-10-04 22:52:00,
2013-10-04 15:57:00,36.9,15.4,30.11,ENE,57,11.0,17.0,41,0.00,,,0.03,meteohub,2013-10-04 22:57:00,
2013-10-04 16:02:00,36.7,14.5,30.11,East,90,9.0,17.0,40,0.00,,,0.03,meteohub,2013-10-04 23:02:00,
2013-10-04 16:12:00,36.7,16.3,30.13,ESE,120,10.0,18.0,43,0.00,,,0.03,meteohub,2013-10-04 23:12:00,
2013-10-04 16:17:00,36.7,16.3,30.13,ENE,74,12.0,17.0,43,0.00,,,0.03,meteohub,2013-10-04 23:17:00,
2013-10-04 16:22:00,36.0,16.7,30.13,ENE,68,13.0,19.0,45,0.00,,,0.03,meteohub,2013-10-04 23:22:00,
2013-10-04 16:27:00,35.6,17.4,30.13,ENE,62,12.0,19.0,47,0.00,,,0.03,meteohub,2013-10-04 23:27:00,
2013-10-04 16:32:00,35.6,17.4,30.14,East,98,8.0,19.0,47,0.00,,,0.03,meteohub,2013-10-04 23:32:00,
2013-10-04 16:37:00,35.6,16.9,30.14,ENE,60,8.0,19.0,46,0.00,,,0.03,meteohub,2013-10-04 23:37:00,
2013-10-04 16:42:00,34.2,16.5,30.14,ENE,57,7.0,18.0,48,0.00,,,0.03,meteohub,2013-10-04 23:42:00,
2013-10-04 16:47:00,33.8,16.2,30.15,ENE,69,19.0,19.0,48,0.00,,,0.03,meteohub,2013-10-04 23:47:00,
2013-10-04 16:52:00,32.7,18.0,30.15,NE,54,9.0,21.0,54,0.00,,,0.03,meteohub,2013-10-04 23:52:00,
2013-10-04 16:57:00,32.2,19.0,30.16,ENE,70,12.0,22.0,58,0.00,,,0.03,meteohub,2013-10-04 23:57:00,
2013-10-04 17:02:00,32.2,19.0,30.16,ENE,78,9.0,22.0,58,0.00,,,0.03,meteohub,2013-10-05 00:02:00,
2013-10-04 17:07:00,32.0,19.2,30.16,ENE,74,11.0,21.0,59,0.00,,,0.00,meteohub,2013-10-05 00:07:00,
2013-10-04 17:12:00,31.6,19.0,30.17,East,88,15.0,21.0,59,0.00,,,0.00,meteohub,2013-10-05 00:12:00,
2013-10-04 17:17:00,31.6,18.5,30.17,ENE,64,12.0,19.0,58,0.00,,,0.00,meteohub,2013-10-05 00:17:00,
2013-10-04 17:22:00,31.6,17.8,30.17,ENE,73,11.0,19.0,56,0.00,,,0.00,meteohub,2013-10-05 00:22:00,
2013-10-04 17:27:00,31.6,17.8,30.18,East,82,11.0,18.0,56,0.00,,,0.00,meteohub,2013-10-05 00:27:00,
2013-10-04 17:32:00,31.5,18.0,30.18,East,92,15.0,18.0,57,0.00,,,0.00,meteohub,2013-10-05 00:32:00,
2013-10-04 17:37:00,31.3,19.0,30.18,East,83,10.0,19.0,60,0.00,,,0.00,meteohub,2013-10-05 00:37:00,
2013-10-04 17:42:00,30.9,18.3,30.18,East,86,11.0,19.0,59,0.00,,,0.00,meteohub,2013-10-05 00:42:00,
2013-10-04 17:47:00,30.7,18.9,30.18,East,91,13.0,18.0,61,0.00,,,0.00,meteohub,2013-10-05 00:47:00,
2013-10-04 17:52:00,30.4,19.9,30.19,East,83,10.0,19.0,65,0.00,,,0.00,meteohub,2013-10-05 00:52:00,
2013-10-04 18:02:00,29.8,19.9,30.19,ENE,72,11.0,19.0,66,0.00,,,0.00,meteohub,2013-10-05 01:02:00,
2013-10-04 18:07:00,29.8,19.9,30.20,ENE,67,11.0,19.0,66,0.00,,,0.00,meteohub,2013-10-05 01:07:00,
2013-10-04 18:12:00,29.8,19.9,30.21,East,80,14.0,19.0,66,0.00,,,0.00,meteohub,2013-10-05 01:12:00,
2013-10-04 18:17:00,29.8,19.2,30.21,East,84,14.0,19.0,64,0.00,,,0.00,meteohub,2013-10-05 01:17:00,
2013-10-04 18:22:00,29.8,19.6,30.22,East,99,13.0,19.0,65,0.00,,,0.00,meteohub,2013-10-05 01:22:00,
2013-10-04 18:27:00,29.8,19.9,30.22,East,87,8.0,19.0,66,0.00,,,0.00,meteohub,2013-10-05 01:27:00,
2013-10-04 18:32:00,29.7,20.5,30.22,East,82,8.0,19.0,68,0.00,,,0.00,meteohub,2013-10-05 01:32:00,
2013-10-04 18:37:00,29.5,20.7,30.23,East,81,14.0,17.0,69,0.00,,,0.00,meteohub,2013-10-05 01:37:00,
2013-10-04 18:42:00,29.1,20.3,30.23,East,86,14.0,16.0,69,0.00,,,0.00,meteohub,2013-10-05 01:42:00,
2013-10-04 18:47:00,28.9,20.7,30.23,East,91,3.0,17.0,71,0.00,,,0.00,meteohub,2013-10-05 01:47:00,
2013-10-04 18:52:00,28.8,20.8,30.23,ENE,63,8.0,17.0,72,0.00,,,0.00,meteohub,2013-10-05 01:52:00,
2013-10-04 18:57:00,28.6,21.0,30.24,East,81,3.0,17.0,73,0.00,,,0.00,meteohub,2013-10-05 01:57:00,
2013-10-04 19:02:00,28.4,20.8,30.24,East,92,1.0,13.0,73,0.00,,,0.00,meteohub,2013-10-05 02:02:00,
2013-10-04 19:07:00,28.4,20.8,30.25,East,93,7.0,11.0,73,0.00,,,0.00,meteohub,2013-10-05 02:07:00,
2013-10-04 19:12:00,28.2,21.0,30.25,East,94,2.0,9.0,74,0.00,,,0.00,meteohub,2013-10-05 02:12:00,
2013-10-04 19:17:00,28.2,20.7,30.25,East,94,5.0,9.0,73,0.00,,,0.00,meteohub,2013-10-05 02:17:00,
2013-10-04 19:22:00,28.2,20.3,30.26,East,94,8.0,9.0,72,0.00,,,0.00,meteohub,2013-10-05 02:22:00,
2013-10-04 19:27:00,28.6,20.1,30.26,East,80,8.0,9.0,70,0.00,,,0.00,meteohub,2013-10-05 02:27:00,
2013-10-04 19:37:00,28.6,19.4,30.27,East,89,6.0,11.0,68,0.00,,,0.00,meteohub,2013-10-05 02:37:00,
2013-10-04 19:42:00,28.2,19.0,30.27,East,95,6.0,11.0,68,0.00,,,0.00,meteohub,2013-10-05 02:42:00,
2013-10-04 19:47:00,28.2,19.4,30.28,East,85,3.0,11.0,69,0.00,,,0.00,meteohub,2013-10-05 02:47:00,
2013-10-04 19:52:00,28.2,19.4,30.27,ENE,66,8.0,9.0,69,0.00,,,0.00,meteohub,2013-10-05 02:52:00,
2013-10-04 19:57:00,28.0,19.6,30.28,East,80,5.0,8.0,70,0.00,,,0.00,meteohub,2013-10-05 02:57:00,
2013-10-04 20:02:00,27.9,19.8,30.28,East,80,2.0,8.0,71,0.00,,,0.00,meteohub,2013-10-05 03:02:00,
2013-10-04 20:07:00,27.3,19.6,30.29,East,79,7.0,8.0,72,0.00,,,0.00,meteohub,2013-10-05 03:07:00,
2013-10-04 20:12:00,27.1,19.4,30.29,ENE,66,5.0,12.0,72,0.00,,,0.00,meteohub,2013-10-05 03:12:00,
2013-10-04 20:22:00,26.8,19.2,30.30,ENE,66,5.0,12.0,73,0.00,,,0.00,meteohub,2013-10-05 03:22:00,
2013-10-04 20:27:00,26.6,19.0,30.30,ENE,65,2.0,8.0,73,0.00,,,0.00,meteohub,2013-10-05 03:27:00,
2013-10-04 20:32:00,26.1,18.7,30.30,ENE,69,4.0,8.0,73,0.00,,,0.00,meteohub,2013-10-05 03:32:00,
2013-10-04 20:37:00,26.1,18.9,30.31,East,97,2.0,7.0,74,0.00,,,0.00,meteohub,2013-10-05 03:37:00,
2013-10-04 20:42:00,26.4,19.2,30.31,East,88,5.0,9.0,74,0.00,,,0.00,meteohub,2013-10-05 03:42:00,
2013-10-04 20:47:00,27.0,19.2,30.31,ENE,60,3.0,9.0,72,0.00,,,0.00,meteohub,2013-10-05 03:47:00,
2013-10-04 20:52:00,26.8,19.2,30.32,ENE,71,4.0,11.0,73,0.00,,,0.00,meteohub,2013-10-05 03:52:00,
2013-10-04 20:57:00,26.2,19.0,30.32,East,84,3.0,11.0,74,0.00,,,0.00,meteohub,2013-10-05 03:57:00,
2013-10-04 21:02:00,26.1,19.2,30.32,ENE,67,3.0,11.0,75,0.00,,,0.00,meteohub,2013-10-05 04:02:00,
2013-10-04 21:07:00,26.2,19.4,30.32,East,92,5.0,10.0,75,0.00,,,0.00,meteohub,2013-10-05 04:07:00,
2013-10-04 21:12:00,26.8,19.6,30.32,ENE,58,4.0,10.0,74,0.00,,,0.00,meteohub,2013-10-05 04:12:00,
2013-10-04 21:17:00,26.6,19.8,30.33,ENE,71,4.0,7.0,75,0.00,,,0.00,meteohub,2013-10-05 04:17:00,
2013-10-04 21:27:00,26.8,19.9,30.33,ENE,61,3.0,7.0,75,0.00,,,0.00,meteohub,2013-10-05 04:27:00,
2013-10-04 21:32:00,26.6,19.8,30.33,ENE,66,3.0,7.0,75,0.00,,,0.00,meteohub,2013-10-05 04:32:00,
2013-10-04 21:37:00,26.8,19.6,30.33,East,96,3.0,7.0,74,0.00,,,0.00,meteohub,2013-10-05 04:37:00,
2013-10-04 21:42:00,27.0,19.8,30.33,ENE,68,5.0,7.0,74,0.00,,,0.00,meteohub,2013-10-05 04:42:00,
2013-10-04 21:47:00,27.1,19.6,30.33,East,87,3.0,7.0,73,0.00,,,0.00,meteohub,2013-10-05 04:47:00,
2013-10-04 21:52:00,27.3,18.9,30.34,ENE,71,7.0,10.0,70,0.00,,,0.00,meteohub,2013-10-05 04:52:00,
2013-10-04 21:57:00,27.3,19.2,30.34,East,80,5.0,12.0,71,0.00,,,0.00,meteohub,2013-10-05 04:57:00,
2013-10-04 22:02:00,27.3,19.6,30.34,ENE,64,8.0,12.0,72,0.00,,,0.00,meteohub,2013-10-05 05:02:00,
2013-10-04 22:07:00,27.1,19.0,30.34,ENE,71,5.0,11.0,71,0.00,,,0.00,meteohub,2013-10-05 05:07:00,
2013-10-04 22:12:00,27.1,19.4,30.34,East,82,2.0,10.0,72,0.00,,,0.00,meteohub,2013-10-05 05:12:00,
2013-10-04 22:17:00,27.0,19.2,30.34,East,81,1.0,10.0,72,0.00,,,0.00,meteohub,2013-10-05 05:17:00,
2013-10-04 22:22:00,26.4,18.9,30.35,East,81,1.0,8.0,73,0.00,,,0.00,meteohub,2013-10-05 05:22:00,
2013-10-04 22:27:00,26.2,19.0,30.35,East,97,6.0,8.0,74,0.00,,,0.00,meteohub,2013-10-05 05:27:00,
2013-10-04 22:37:00,26.2,18.9,30.35,ENE,78,4.0,9.0,73,0.00,,,0.00,meteohub,2013-10-05 05:37:00,
2013-10-04 22:42:00,26.1,18.7,30.35,East,92,5.0,9.0,73,0.00,,,0.00,meteohub,2013-10-05 05:42:00,
2013-10-04 22:47:00,26.1,18.7,30.36,ESE,104,3.0,10.0,73,0.00,,,0.00,meteohub,2013-10-05 05:47:00,
2013-10-04 22:52:00,25.9,18.5,30.35,East,82,6.0,10.0,73,0.00,,,0.00,meteohub,2013-10-05 05:52:00,
2013-10-04 22:57:00,25.9,18.5,30.36,East,95,3.0,10.0,73,0.00,,,0.00,meteohub,2013-10-05 05:57:00,
2013-10-04 23:02:00,25.3,18.0,30.36,East,95,2.0,7.0,73,0.00,,,0.00,meteohub,2013-10-05 06:02:00,
2013-10-04 23:07:00,24.4,17.6,30.36,East,95,2.0,7.0,75,0.00,,,0.00,meteohub,2013-10-05 06:07:00,
2013-10-04 23:12:00,23.7,17.2,30.36,East,95,0.0,6.0,76,0.00,,,0.00,meteohub,2013-10-05 06:12:00,
2013-10-04 23:17:00,23.4,17.6,30.37,East,95,0.0,5.0,78,0.00,,,0.00,meteohub,2013-10-05 06:17:00,
2013-10-04 23:22:00,23.2,17.6,30.37,East,95,0.0,3.0,79,0.00,,,0.00,meteohub,2013-10-05 06:22:00,
2013-10-04 23:27:00,23.0,17.8,30.38,East,95,0.0,2.0,80,0.00,,,0.00,meteohub,2013-10-05 06:27:00,
2013-10-04 23:37:00,22.8,17.6,30.37,East,95,0.0,2.0,80,0.00,,,0.00,meteohub,2013-10-05 06:37:00,
2013-10-04 23:42:00,22.8,17.6,30.38,East,95,0.0,2.0,80,0.00,,,0.00,meteohub,2013-10-05 06:42:00,
2013-10-04 23:47:00,22.6,17.4,30.38,East,95,0.0,2.0,80,0.00,,,0.00,meteohub,2013-10-05 06:47:00,
2013-10-04 23:52:00,22.6,17.8,30.37,East,95,0.0,1.0,81,0.00,,,0.00,meteohub,2013-10-05 06:52:00,
2013-10-04 23:57:00,22.3,17.1,30.38,East,95,0.0,0.0,80,0.00,,,0.00,meteohub,2013-10-05 06:57:00,